Time,TemperatureF,DewpointF,PressureIn,WindDirection,WindDirectionDegrees,WindSpeedMPH,WindSpeedGustMPH,Humidity,HourlyPrecipIn,Conditions,Clouds,dailyrainin,SolarRadiationWatts/m^2,SoftwareType,DateUTC
2013-03-08 00:01:00,45.0,35.0,-100.00,SE,129,5.0,13.0,68,0.00,,,0.01,0.000000,,2013-03-08 08:01:00,
2013-03-08 00:11:00,45.0,35.0,-100.00,SE,129,5.0,13.0,68,0.00,,,0.01,0.000000,,2013-03-08 08:11:00,
2013-03-08 00:42:00,47.0,37.0,-100.00,East,101,1.0,9.0,69,0.00,,,0.01,0.000000,,2013-03-08 08:42:00,
2013-03-08 00:52:00,47.0,37.0,-100.00,East,101,1.0,9.0,69,0.00,,,0.01,0.000000,,2013-03-08 08:52:00,
2013-03-08 01:02:00,47.0,37.0,-100.00,East,101,1.0,9.0,69,0.00,,,0.01,0.000000,,2013-03-08 09:02:00,
2013-03-08 01:11:00,47.0,37.0,-100.00,East,101,1.0,9.0,69,0.00,,,0.01,0.000000,,2013-03-08 09:11:00,
2013-03-08 01:32:00,45.0,39.0,-100.00,SE,132,0.0,12.0,80,0.00,,,0.01,0.000000,,2013-03-08 09:32:00,
2013-03-08 01:42:00,45.0,39.0,-100.00,SE,132,0.0,12.0,80,0.00,,,0.01,0.000000,,2013-03-08 09:42:00,
2013-03-08 01:52:00,45.0,39.0,-100.00,SE,132,0.0,12.0,80,0.00,,,0.01,0.000000,,2013-03-08 09:52:00,
2013-03-08 02:01:00,45.0,39.0,-100.00,SE,132,0.0,12.0,80,0.00,,,0.01,0.000000,,2013-03-08 10:01:00,
2013-03-08 02:11:00,45.0,39.0,-100.00,SE,132,0.0,12.0,80,0.00,,,0.01,0.000000,,2013-03-08 10:11:00,
2013-03-08 02:42:00,43.0,42.0,-100.00,South,181,0.0,3.0,95,0.03,,,0.04,0.000000,,2013-03-08 10:42:00,
2013-03-08 02:52:00,43.0,42.0,-100.00,South,181,0.0,3.0,95,0.03,,,0.04,0.000000,,2013-03-08 10:52:00,
2013-03-08 03:01:00,43.0,42.0,-100.00,South,181,0.0,3.0,95,0.03,,,0.04,0.000000,,2013-03-08 11:01:00,
2013-03-08 03:11:00,43.0,42.0,-100.00,South,181,0.0,3.0,95,0.03,,,0.04,0.000000,,2013-03-08 11:11:00,
2013-03-08 03:32:00,43.0,42.0,-100.00,ENE,77,0.0,5.0,96,0.11,,,0.15,0.000000,,2013-03-08 11:32:00,
2013-03-08 03:42:00,43.0,42.0,-100.00,ENE,77,0.0,5.0,96,0.11,,,0.15,0.000000,,2013-03-08 11:42:00,
2013-03-08 03:52:00,43.0,42.0,-100.00,ENE,77,0.0,5.0,96,0.11,,,0.15,0.000000,,2013-03-08 11:52:00,
2013-03-08 04:01:00,43.0,42.0,-100.00,ENE,77,0.0,5.0,96,0.11,,,0.15,0.000000,,2013-03-08 12:01:00,
2013-03-08 04:11:00,43.0,42.0,-100.00,ENE,77,0.0,5.0,96,0.11,,,0.15,0.000000,,2013-03-08 12:11:00,
2013-03-08 04:32:00,43.0,41.0,-100.00,SE,131,0.0,6.0,94,0.05,,,0.20,0.000000,,2013-03-08 12:32:00,
2013-03-08 04:43:00,43.0,41.0,-100.00,SE,131,0.0,6.0,94,0.05,,,0.20,0.000000,,2013-03-08 12:43:00,
2013-03-08 04:52:00,43.0,41.0,-100.00,SE,131,0.0,6.0,94,0.05,,,0.20,0.000000,,2013-03-08 12:52:00,
2013-03-08 05:01:00,43.0,41.0,-100.00,SE,131,0.0,6.0,94,0.05,,,0.20,0.000000,,2013-03-08 13:01:00,
2013-03-08 05:11:00,43.0,41.0,-100.00,SE,131,0.0,6.0,94,0.05,,,0.20,0.000000,,2013-03-08 13:11:00,
2013-03-08 05:42:00,40.0,37.0,-100.00,East,88,6.0,11.0,90,0.34,,,0.54,0.000000,,2013-03-08 13:42:00,
2013-03-08 05:52:00,40.0,37.0,-100.00,East,88,6.0,11.0,90,0.34,,,0.54,0.000000,,2013-03-08 13:52:00,
2013-03-08 06:02:00,40.0,37.0,-100.00,East,88,6.0,11.0,90,0.34,,,0.54,0.000000,,2013-03-08 14:02:00,
2013-03-08 06:11:00,40.0,37.0,-100.00,East,88,6.0,11.0,90,0.34,,,0.54,0.000000,,2013-03-08 14:11:00,
2013-03-08 06:32:00,39.0,37.0,-100.00,ESE,123,6.0,16.0,94,0.16,,,0.70,0.000000,,2013-03-08 14:32:00,
2013-03-08 06:42:00,39.0,37.0,-100.00,ESE,123,6.0,16.0,94,0.16,,,0.70,0.000000,,2013-03-08 14:42:00,
2013-03-08 06:52:00,39.0,37.0,-100.00,ESE,123,6.0,16.0,94,0.16,,,0.70,0.000000,,2013-03-08 14:52:00,
2013-03-08 07:02:00,39.0,37.0,-100.00,ESE,123,6.0,16.0,94,0.16,,,0.70,0.000000,,2013-03-08 15:02:00,
2013-03-08 07:11:00,39.0,37.0,-100.00,ESE,123,6.0,16.0,94,0.16,,,0.70,0.000000,,2013-03-08 15:11:00,
2013-03-08 07:32:00,41.0,38.0,-100.00,East,101,5.0,12.0,89,0.03,,,0.73,15.000000,,2013-03-08 15:32:00,
2013-03-08 07:43:00,41.0,38.0,-100.00,East,101,5.0,12.0,89,0.03,,,0.73,15.000000,,2013-03-08 15:43:00,
2013-03-08 07:53:00,41.0,38.0,-100.00,East,101,5.0,12.0,89,0.03,,,0.73,15.000000,,2013-03-08 15:53:00,
2013-03-08 08:01:00,41.0,38.0,-100.00,East,101,5.0,12.0,89,0.03,,,0.73,15.000000,,2013-03-08 16:01:00,
2013-03-08 08:11:00,41.0,38.0,-100.00,East,101,5.0,12.0,89,0.03,,,0.73,15.000000,,2013-03-08 16:11:00,
2013-03-08 08:32:00,41.0,39.0,-100.00,NE,55,0.0,9.0,92,0.03,,,0.76,66.000000,,2013-03-08 16:32:00,
2013-03-08 08:42:00,41.0,39.0,-100.00,NE,55,0.0,9.0,92,0.03,,,0.76,66.000000,,2013-03-08 16:42:00,
2013-03-08 08:52:00,41.0,39.0,-100.00,NE,55,0.0,9.0,92,0.03,,,0.76,66.000000,,2013-03-08 16:52:00,
2013-03-08 09:02:00,41.0,39.0,-100.00,NE,55,0.0,9.0,92,0.03,,,0.76,66.000000,,2013-03-08 17:02:00,
2013-03-08 09:11:00,41.0,39.0,-100.00,NE,55,0.0,9.0,92,0.03,,,0.76,66.000000,,2013-03-08 17:11:00,
2013-03-08 09:32:00,48.0,44.0,-100.00,ENE,73,0.0,6.0,85,0.01,,,-99.99,213.000000,,2013-03-08 17:32:00,
2013-03-08 09:42:00,48.0,44.0,-100.00,ENE,73,0.0,6.0,85,0.01,,,-99.99,213.000000,,2013-03-08 17:42:00,
2013-03-08 09:52:00,48.0,44.0,-100.00,ENE,73,0.0,6.0,85,0.01,,,-99.99,213.000000,,2013-03-08 17:52:00,
2013-03-08 10:01:00,48.0,44.0,-100.00,ENE,73,0.0,6.0,85,0.01,,,-99.99,213.000000,,2013-03-08 18:01:00,
2013-03-08 10:11:00,48.0,44.0,-100.00,ENE,73,0.0,6.0,85,0.01,,,-99.99,213.000000,,2013-03-08 18:11:00,
2013-03-08 10:32:00,43.0,38.0,-100.00,NNE,18,0.0,10.0,81,0.00,,,0.77,231.000000,,2013-03-08 18:32:00,
2013-03-08 10:42:00,43.0,38.0,-100.00,NNE,18,0.0,10.0,81,0.00,,,0.77,231.000000,,2013-03-08 18:42:00,
2013-03-08 10:52:00,43.0,38.0,-100.00,NNE,18,0.0,10.0,81,0.00,,,0.77,231.000000,,2013-03-08 18:52:00,
2013-03-08 11:01:00,43.0,38.0,-100.00,NNE,18,0.0,10.0,81,0.00,,,0.77,231.000000,,2013-03-08 19:01:00,
2013-03-08 11:11:00,43.0,38.0,-100.00,NNE,18,0.0,10.0,81,0.00,,,0.77,231.000000,,2013-03-08 19:11:00,
2013-03-08 11:42:00,46.0,43.0,-100.00,East,84,5.0,8.0,89,0.11,,,0.88,229.000000,,2013-03-08 19:42:00,
2013-03-08 11:52:00,46.0,43.0,-100.00,East,84,5.0,8.0,89,0.11,,,0.88,229.000000,,2013-03-08 19:52:00,
2013-03-08 12:01:00,46.0,43.0,-100.00,East,84,5.0,8.0,89,0.11,,,0.88,229.000000,,2013-03-08 20:01:00,
2013-03-08 12:11:00,46.0,43.0,-100.00,East,84,5.0,8.0,89,0.11,,,0.88,229.000000,,2013-03-08 20:11:00,
2013-03-08 12:42:00,43.0,38.0,-100.00,East,90,0.0,12.0,83,0.06,,,0.94,186.000000,,2013-03-08 20:42:00,
2013-03-08 12:53:00,43.0,38.0,-100.00,East,90,0.0,12.0,83,0.06,,,0.94,186.000000,,2013-03-08 20:53:00,
2013-03-08 13:01:00,43.0,38.0,-100.00,East,90,0.0,12.0,83,0.06,,,0.94,186.000000,,2013-03-08 21:01:00,
2013-03-08 13:11:00,43.0,38.0,-100.00,East,90,0.0,12.0,83,0.06,,,0.94,186.000000,,2013-03-08 21:11:00,
2013-03-08 13:42:00,39.0,37.0,-100.00,WSW,258,4.0,22.0,91,0.04,,,0.97,192.000000,,2013-03-08 21:42:00,
2013-03-08 13:52:00,39.0,37.0,-100.00,WSW,258,4.0,22.0,91,0.04,,,0.97,192.000000,,2013-03-08 21:52:00,
2013-03-08 14:01:00,39.0,37.0,-100.00,WSW,258,4.0,22.0,91,0.04,,,0.97,192.000000,,2013-03-08 22:01:00,
2013-03-08 14:11:00,39.0,37.0,-100.00,WSW,258,4.0,22.0,91,0.04,,,0.97,192.000000,,2013-03-08 22:11:00,
2013-03-08 14:42:00,40.0,38.0,-100.00,ENE,62,0.0,6.0,92,0.07,,,1.04,96.000000,,2013-03-08 22:42:00,
2013-03-08 14:52:00,40.0,38.0,-100.00,ENE,62,0.0,6.0,92,0.07,,,1.04,96.000000,,2013-03-08 22:52:00,
2013-03-08 15:01:00,40.0,38.0,-100.00,ENE,62,0.0,6.0,92,0.07,,,1.04,96.000000,,2013-03-08 23:01:00,
2013-03-08 15:11:00,40.0,38.0,-100.00,ENE,62,0.0,6.0,92,0.07,,,1.04,96.000000,,2013-03-08 23:11:00,
2013-03-08 15:42:00,41.0,38.0,-100.00,East,86,0.0,6.0,89,0.02,,,1.06,216.000000,,2013-03-08 23:42:00,
2013-03-08 15:52:00,41.0,38.0,-100.00,East,86,0.0,6.0,89,0.02,,,1.06,216.000000,,2013-03-08 23:52:00,
2013-03-08 16:01:00,41.0,38.0,-100.00,East,86,0.0,6.0,89,0.02,,,1.06,216.000000,,2013-03-09 00:01:00,
2013-03-08 16:11:00,41.0,38.0,-100.00,East,86,0.0,6.0,89,0.02,,,1.06,216.000000,,2013-03-09 00:11:00,
2013-03-08 16:42:00,46.0,41.0,-100.00,NE,54,2.0,6.0,81,0.00,,,1.06,290.000000,,2013-03-09 00:42:00,
2013-03-08 16:52:00,46.0,41.0,-100.00,NE,54,2.0,6.0,81,0.00,,,1.06,290.000000,,2013-03-09 00:52:00,
2013-03-08 17:01:00,46.0,41.0,-100.00,NE,54,2.0,6.0,81,0.00,,,1.06,290.000000,,2013-03-09 01:01:00,
2013-03-08 17:12:00,46.0,41.0,-100.00,NE,54,2.0,6.0,81,0.00,,,1.06,290.000000,,2013-03-09 01:12:00,
2013-03-08 19:42:00,41.0,39.0,-100.00,SE,125,0.0,8.0,91,-99.99,,,1.09,0.000000,,2013-03-09 03:42:00,
2013-03-08 19:52:00,41.0,39.0,-100.00,SE,125,0.0,8.0,91,-99.99,,,1.09,0.000000,,2013-03-09 03:52:00,
2013-03-08 20:01:00,41.0,39.0,-100.00,SE,125,0.0,8.0,91,-99.99,,,1.09,0.000000,,2013-03-09 04:01:00,
2013-03-08 20:11:00,41.0,39.0,-100.00,SE,125,0.0,8.0,91,-99.99,,,1.09,0.000000,,2013-03-09 04:11:00,
2013-03-08 20:32:00,43.0,40.0,-100.00,West,261,4.0,11.0,90,0.01,,,1.10,0.000000,,2013-03-09 04:32:00,
2013-03-08 20:42:00,43.0,40.0,-100.00,West,261,4.0,11.0,90,0.01,,,1.10,0.000000,,2013-03-09 04:42:00,
2013-03-08 20:52:00,43.0,40.0,-100.00,West,261,4.0,11.0,90,0.01,,,1.10,0.000000,,2013-03-09 04:52:00,
2013-03-08 21:01:00,43.0,40.0,-100.00,West,261,4.0,11.0,90,0.01,,,1.10,0.000000,,2013-03-09 05:01:00,
2013-03-08 21:11:00,43.0,40.0,-100.00,West,261,4.0,11.0,90,0.01,,,1.10,0.000000,,2013-03-09 05:11:00,
2013-03-08 21:32:00,41.0,39.0,-100.00,ENE,72,0.0,8.0,91,0.01,,,-99.99,0.000000,,2013-03-09 05:32:00,
2013-03-08 21:43:00,41.0,39.0,-100.00,ENE,72,0.0,8.0,91,0.01,,,-99.99,0.000000,,2013-03-09 05:43:00,
2013-03-08 21:53:00,41.0,39.0,-100.00,ENE,72,0.0,8.0,91,0.01,,,-99.99,0.000000,,2013-03-09 05:53:00,
2013-03-08 22:01:00,41.0,39.0,-100.00,ENE,72,0.0,8.0,91,0.01,,,-99.99,0.000000,,2013-03-09 06:01:00,
2013-03-08 22:11:00,41.0,39.0,-100.00,ENE,72,0.0,8.0,91,0.01,,,-99.99,0.000000,,2013-03-09 06:11:00,
2013-03-08 22:32:00,43.0,41.0,-100.00,South,191,2.0,6.0,93,0.01,,,1.12,0.000000,,2013-03-09 06:32:00,
2013-03-08 22:42:00,43.0,41.0,-100.00,South,191,2.0,6.0,93,0.01,,,1.12,0.000000,,2013-03-09 06:42:00,
2013-03-08 22:52:00,43.0,41.0,-100.00,South,191,2.0,6.0,93,0.01,,,1.12,0.000000,,2013-03-09 06:52:00,
2013-03-08 23:01:00,43.0,41.0,-100.00,South,191,2.0,6.0,93,0.01,,,1.12,0.000000,,2013-03-09 07:01:00,
2013-03-08 23:11:00,43.0,41.0,-100.00,South,191,2.0,6.0,93,0.01,,,1.12,0.000000,,2013-03-09 07:11:00,
2013-03-08 23:32:00,43.0,42.0,-100.00,ESE,106,0.0,5.0,95,0.02,,,1.14,0.000000,,2013-03-09 07:32:00,
2013-03-08 23:42:00,43.0,42.0,-100.00,ESE,106,0.0,5.0,95,0.02,,,1.14,0.000000,,2013-03-09 07:42:00,
2013-03-08 23:52:00,43.0,42.0,-100.00,ESE,106,0.0,5.0,95,0.02,,,1.14,0.000000,,2013-03-09 07:52:00,